www.pogodaiklimat.ru

Погода и климат >> Архив погоды >> Италия >> Roma


АРХИВ ПОГОДЫ в Roma

Время (UTC), дата Ветер
(напр.,м/с)
 
Видим.   Явления Облачность Т
(С)
Тd
(С)
f
(%)
Тe
(С)
Тes
(С)
Комфортность P
(гПа)
Po
(гПа)
Тmin
(С)
Tmax
(С)
R
(мм)
R24
(мм)
S
(см)
12 11.12 Ю 10 9000 м дымка 10/9 660 м
[Frnb As trans]
+16.0 +11.8 76 +14 +14 тепло 1007.3 1006.8
15 11.12 Ю 10 9000 м дымка 10/6 750 м
[Frnb As trans]
+15.8 +11.7 77 +14 +14 тепло 1007.1 1006.7
18 11.12 Ю 11 9000 м дымка 10/6 600 м
[Frnb As trans]
+15.9 +12.2 79 +14 +14 тепло 1007.7 1007.3 +16.3
21 11.12 Ю 11 9000 м дымка 10/6 600 м
[Frnb As trans]
+16.0 +12.3 79 +14 +14 тепло 1008.4 1008.0
00 12.12 Ю 9 8000 м дымка 9/6 600 м
[Frnb As trans]
+16.0 +12.6 80 +14 +14 тепло 1009.4 1008.9
03 12.12 ЮВ 9 8000 м дымка 9/6 660 м
[Frnb As trans]
+16.0 +12.6 80 +14 +14 тепло 1009.6 1009.1
06 12.12 ЮВ 7 9000 м дымка 10/8 700 м
[Frnb As trans]
+16.0 +12.3 79 +14 +14 тепло 1011.1 1010.6 +15.7
09 12.12 ЮВ 6 6000 м дымка 10/8 700 м
[Frnb As trans]
+16.7 +13.0 79 +16 +16 тепло 1013.1 1012.6
12 12.12 Ю 7 8000 м дымка 10/8 700 м
[Frnb As trans]
+16.7 +13.2 80 +16 +16 тепло 1013.3 1012.8
15 12.12 Ю 5 8000 м дымка 10/8 360 м
[Frnb As trans]
+16.2 +13.9 86 +15 +15 тепло 1013.8 1013.3
18 12.12 Ю 4 8000 м дымка 10/8 210 м
[Frnb As trans]
+15.9 +15.1 95 +15 +15 тепло 1014.8 1014.3 +17.3
21 12.12 СЗ 6 8000 м слабый дождь 10/8 450 м
[Frnb As trans]
+13.9 +12.0 88 +12 +12 тепло 1016.2 1015.7
00 13.12 ЮЗ 2 5000 м слабый дождь 10/5 300 м
[Frnb As op]
+12.9 +12.3 96 +12 +12 тепло 1017.1 1016.6 8
03 13.12 ЮЗ 4 15 км слабый дождь 10/9 450 м
[Sc As op]
+12.0 +10.0 88 +10 +10 тепло 1017.9 1017.4
06 13.12 З 4 15 км слабый дождь {морось} 10/9 450 м
[Sc As op]
+12.4 +9.7 84 +10 +10 тепло 1018.3 1017.8 +12.0 13
09 13.12 ЮЗ 6 30 км {дождь} 8/5 900 м
[Sc Ac As]
+13.8 +8.2 69 +12 +12 тепло 1019.3 1018.8
12 13.12 З 5 30 км 5/3 900 м
[Cu med, cong Ac As]
+14.2 +7.1 62 +13 +14 по сезону 1018.4 1017.9
15 13.12 З 5 40 км 4/4 900 м
[Cu med, cong Ac trans]
+13.0 +5.6 61 +11 +11 по сезону 1018.5 1018.1
18 13.12 ЮЗ 3 35 км 4/4 1140 м
[Cu med, cong Ac trans]
+11.4 +4.2 61 +10 +10 по сезону 1018.5 1018.1 +14.7
21 13.12 В 2 35 км 4/4 1140 м
[Cu hum Ac trans]
+8.5 +4.8 78 +7 +7 по сезону 1019.0 1018.6
00 14.12 СВ 3 20 км ясно +5.0 +4.3 95 +2 +2 прохладно 1018.5 1018.6
03 14.12 З 9 20 км 5/4 1350 м
[Sc Ac As]
+13.0 +8.6 75 +10 +10 тепло 1017.5 1017.1
06 14.12 ЮЗ 9 20 км 6/6 900 м
[Sc Ac As]
+13.8 +8.3 69 +11 +11 тепло 1016.8 1016.3 +4.1
09 14.12 ЮЗ 7 20 км 6/6 900 м
[Sc Ac As]
+15.0 +8.3 64 +13 +14 тепло 1016.7 1016.2
12 14.12 Ю 6 15 км слабая морось 8/6 750 м
[Cu Sc Ac lent Cs]
+14.9 +9.8 72 +13 +14 по сезону 1014.9 1014.4
15 14.12 Ю 5 15 км слабая морось 9/9 840 м
[Cu Sc Ac lent]
+15.2 +9.8 70 +14 +14 тепло 1013.7 1013.2
18 14.12 Ю 4 15 км 5/5 900 м
[Cu hum Ac lent]
+15.1 +10.6 74 +14 +14 тепло 1013.4 1013.0 +15.7
21 14.12 Ю 4 15 км 6/6 1050 м
[Cu Sc Ac lent]
+15.6 +10.2 70 +15 +15 тепло 1012.6 1012.2
00 15.12 0 н/о +15.5 +11.4 77 +32 +32 очень
душно
1011.1 1010.7
03 15.12 Ю 5 15 км 8/6 750 м
[Sc diur, vesp Ac As]
+15.3 +12.5 83 +14 +14 тепло 1009.4 1008.9
06 15.12 Ю 4 20 км 9/3 750 м
[Cu hum Ac As]
+15.7 +12.1 79 +15 +15 тепло 1007.8 1007.3 +13.6
09 15.12 Ю 5 6000 м слабый дождь {морось} 9/5 300 м
[Cu Sc Ac As]
+14.8 +13.2 90 +13 +13 тепло 1006.6 1006.1
12 15.12 ЮЗ 6 6000 м слабый дождь {морось} 9/5 300 м
[Cu Sc Ac As]
+14.4 +13.3 93 +12 +13 по сезону 1002.5 1002.0
15 15.12 ЮЗ 10 5000 м дождь {морось} 9/9 240 м
[Cu Sc]
+15.1 +14.0 93 +13 +13 тепло 999.8 999.3
18 15.12 ЮЗ 10 5000 м слабый дождь {морось} 8/8 450 м
[Cu Sc Ac lent]
+14.4 +12.9 91 +12 +12 тепло 999.3 998.9 +15.7
21 15.12 З 12 15 км {дождь} 8/3 750 м
[Cu hum As trans]
+13.5 +8.4 71 +10 +10 тепло 1000.1 999.6
00 16.12 СВ 3 15 км {дождь} 8/4 900 м
[Cu hum As trans]
+9.1 +6.2 82 +7 +7 по сезону 1002.8 1002.3
03 16.12 В 4 15 км {дождь} 8/4 1200 м
[Cu hum As trans]
+7.5 +5.3 86 +4 +4 по сезону 1004.1 1003.6
06 16.12 В 3 15 км 4/3 1050 м
[Cu med, cong Ac cuf]
+8.1 +5.5 84 +6 +6 по сезону 1004.5 1004.1 +6.9
09 16.12 Ю 3 25 км 3/3 1050 м
[Cu hum Ac lent]
+13.6 +5.1 56 +13 +14 тепло 1005.8 1005.3
12 16.12 З 8 25 км 8/4 750 м
[Cu med, cong Ac cuf]
+12.8 +4.9 59 +10 +10 по сезону 1006.0 1005.5
15 16.12 З 9 25 км 8/8 750 м
[Cu med, cong]
+11.9 +2.0 51 +9 +9 по сезону 1006.0 1005.5
18 16.12 СВ 1 40 км дождь 8/8 750 м
[Cu med, cong]
+7.9 +3.5 74 +7 +7 по сезону 1007.6 1007.1 +14.1
21 16.12 З 1 40 км ясно +5.2 +3.3 88 +4 +4 по сезону 1009.2 1008.7
00 17.12 СЗ 5 30 км 4/0
[Ci]
+3.0 +1.7 91 -2 -2 холодно 1010.7 1010.2
03 17.12 СЗ 2 30 км 4/0
[Ci]
+3.5 +1.4 86 +1 +1 прохладно 1012.0 1011.6
06 17.12 СЗ 3 30 км 4/0
[Ci]
+3.4 +0.6 82 -1 -1 холодно 1013.2 1012.8 +2.1
09 17.12 С 5 60 км 3/0
[Ci fib]
+8.2 +1.8 64 +5 +6 прохладно 1014.7 1014.2
12 17.12 С 7 60 км 5/0
[Ci]
+10.5 +0.8 51 +7 +8 прохладно 1014.6 1014.1
15 17.12 С 7 60 км 4/1 900 м
[Cu hum Ci]
+10.0 +0.2 51 +7 +7 по сезону 1015.5 1015.0
18 17.12 С 7 40 км 3/0
[Ci]
+7.4 -2.4 50 +3 +3 прохладно 1018.1 1017.6 +11.2
21 17.12 С 5 40 км 1/0
[Ci]
+6.1 -2.3 55 +2 +2 прохладно 1019.9 1019.5
00 18.12 С 4 50 км ясно +4.9 -1.6 63 +1 +1 прохладно 1021.0 1020.5
03 18.12 СЗ 3 50 км ясно +3.6 -2.1 66 0 0 прохладно 1021.4 1020.9
06 18.12 СВ 6 60 км 1/1 600 м
[Cu med, cong]
+4.0 -2.0 65 -1 -1 холодно 1022.1 1021.6 +3.5

 

Местоположение метеостанции Roma (Италия): широта 41.80 долгота 12.23 высота над уровнем моря 3 м.

В архиве по умолчанию представлена погода в Roma за последнюю неделю. Архивные данные за месяц целиком и за предыдущие месяцы, начиная с января 2011 года, Вы можете получить, выбрав интересующий диапазон дат из раскрывающегося списка и нажав кнопку "Ввод!".

Внимание! Время в таблицах - всемирное. Для получения местного времени необходимо прибавить поправку, которая в Roma равна 1 ч.

Смотрите также архив погоды в соседних городах и на ближайших метеорологических станциях:

Погода в Pratica di Mare (Италия) (25 км)
Погода в Vigna di Valle (Италия) (31 км)
Погода в Civitavecchia (Италия) (42 км)
Погода в Guidonia (Италия) (47 км)
Погода в Latina (Италия) (62 км)
Погода в Latina (Италия) (62 км)
Погода в Viterbo (Италия) (72 км)
Погода в Frosinone (Италия) (91 км)
Погода в Torre Olevola (Италия) (96 км)
Погода в Monte Terminillo (Италия) (97 км)

Пояснения к столбцам:

Ветер - указаны скорость ветра в м/с - средняя за 10 мин, порывы в срок и между сроками (в фигурных скобках) и направление, откуда дует ветер: С - северный, СВ - северо-восточный, В - восточный, ЮВ - юго-восточный, Ю - южный, ЮЗ - юго-западный, З - западный, СЗ - северо-западный.
Видимость - горизонтальная дальность видимости в метрах или километрах. При видимости от 1 до 10 км при отсутствии осадков обычно наблюдается дымка, при ухудшении видимости до 1 км и менее - туман. В сухую погоду видимость может ухудшаться дымом, пылью или мглою.
Явления - указаны атмосферные явления, наблюдавшиеся в срок или в последний час перед сроком; фигурными скобками обозначены явления, наблюдавшиеся между сроками (за 1-3 часа до срока); квадратными скобками обозначены град или гололедные отложения с указанием их диаметра в мм.
Облачность - указаны через наклонную черту общая и нижняя облачность в баллах и высота нижней границы облаков в метрах; квадратными скобками обозначены формы облаков: Ci - перистые, Cs - перисто-слоистые, Cc - перисто-кучевые, Ac - высококучевые, As - высокослоистые, Sc - слоисто-кучевые, Ns - слоисто-дождевые, Cu - кучевые, Cb - кучево-дождевые. Подробнее классификацию облаков см. в Атласе облаков (PDF).
T - Температура воздуха - температура, измеренная на высоте 2 м над землей.
Td - Температура точки росы - температура, при понижении до которой содержащийся в воздухе водяной пар достигнет насыщения.
f - Относительная влажность воздуха - влажноcть воздуха, измеренная на высоте 2 м над землей.
Te - Эффективная температура - температура, которую ощущает одетый по сезону человек в тени. Характеристика душности погоды. При расчете учитывается влияние влажности воздуха и скорости ветра на теплоощущения человека.
Tes - Эффективная температура на солнце - температура, которую ощущает человек, с поправкой на солнечный нагрев. Характеристика знойности погоды. Зависит от высоты солнца над горизонтом, облачности и скорости ветра. Ночью, в пасмурную погоду, а также при ветре 12 м/с и более поправка равна нулю.
P - Атмосферное давление - приведенное к уровню моря атмосферное давление.
Po - Атмосферное давление - измеренное на уровне метеостанции атмосферное давление.
Tmin - Минимальная температура - минимум температуры воздуха на высоте 2 м над землей.
Tmax - Максимальная температура - максимум температуры воздуха на высоте 2 м над землей.
R - Количество осадков - Количество выпавших осадков за период времени, мм. При наведении курсора мыши на число - период времени, за который выпало указанное количество осадков.
R24 - Количество осадков - Количество выпавших осадков за 24 часа, мм.
S - Снежный покров - Высота снежного покрова, см. При наведении курсора мыши на число - состояние снежного покрова и степень покрытия местности в баллах.